Miscellaneous Local Product
Issued by NWS Hastings, NE

Home | Current Version | Previous Version | Text Only | Print | Product List | Glossary On
Versions: 1 2 3 4 5 6 7 8 9 10 11 12 13 14 15 16 17 18 19 20 21 22 23 24 25 26 27 28 29 30 31 32 33 34 35 36 37 38 39 40 41 42 43 44 45 46 47 48 49 50
865
AXUS43 KGID 060702
MISGRI

GID CWA HOURLY WEATHER ROUNDUP
NATIONAL WEATHER SERVICE HASTINGS NE
100 AM CST TUE DEC 06 2016

NOTE: "FAIR" INDICATES FEW OR NO CLOUDS BELOW 12,000 FEET WITH NO
SIGNIFICANT WEATHER AND/OR OBSTRUCTIONS TO VISIBILITY.

...SOUTH CENTRAL NEBRASKA...

CITY           SKY/WX    TMP DP  RH WIND       PRES   REMARKS
GRAND ISLAND   CLOUDY    28  16  60 NW22G29   29.95R WCI  14
HASTINGS       CLOUDY    29  16  58 N22G30    29.94R WCI  15
KEARNEY        CLOUDY    27  12  54 NW14G24   29.95R WCI  15
ORD            MOCLDY    24  10  55 NW17G28   29.92R WCI  11
YORK           CLOUDY    28  18  64 NW23G30   29.91R WCI  14
AURORA         CLOUDY    29  17  60 NW16G25   29.93R WCI  17
LEXINGTON      MOCLDY    26  17  66 NW7       29.95F WCI  19
HOLDREGE       CLOUDY    27  14  58 N17G24    29.94F WCI  15
HEBRON         CLOUDY    31  20  62 N16G22    29.93R WCI  20

...NEBRASKA PANHANDLE...

CITY           SKY/WX    TMP DP  RH WIND       PRES   REMARKS
CHADRON        CLEAR     15   6  67 W14       29.99R WCI   0
ALLIANCE       CLEAR     16   4  59 NW18G25   29.92R WCI   0
SCOTTSBLUFF    CLEAR     15   4  61 W12       29.98R WCI   2
SIDNEY         PTCLDY    16   5  62 NW12      29.97R WCI   3

...WESTERN AND NORTH CENTRAL NEBRASKA...

CITY           SKY/WX    TMP DP  RH WIND       PRES   REMARKS
VALENTINE      CLEAR     15   7  70 W10       29.93S WCI   2
AINSWORTH      CLEAR     18  10  71 W14G20    29.92S WCI   4
ONEILL         MOCLDY    22  10  61 NW22G30   29.91R WCI   6
BROKEN BOW     PTCLDY    24  14  65 NW9       29.94R WCI  14
IMPERIAL       CLEAR     22   9  57 NW12      29.99R WCI  10
NORTH PLATTE   CLOUDY    24  13  62 W15       29.96R WCI  11
MCCOOK         CLOUDY    28  12  51 NW16      29.98R WCI  16

...EASTERN NEBRASKA...

CITY           SKY/WX    TMP DP  RH WIND       PRES   REMARKS
NORFOLK        MOCLDY    26  15  63 NW18G24   29.88S WCI  13
SO SIOUX CITY  CLOUDY    30  18  60 NW15G24   29.84F WCI  19
TEKAMAH        CLOUDY    30  21  69 NW22      29.88F WCI  17
COLUMBUS       CLOUDY    28  16  59 NW25      29.90R WCI  14
ALBION         CLOUDY    26  10  50 NW24G30   29.91S WCI  11
OMAHA EPPLEY   CLOUDY    32  24  72 N13       29.87R WCI  22
OFFUTT AFB     CLOUDY    33  30  88 NW7       29.87R WCI  26
MILLARD        CLOUDY    33  25  73 NW10G21   29.88R WCI  25
LINCOLN        CLOUDY    32  20  61 NW20      29.91R WCI  20
NEBRASKA CITY  CLOUDY    33  25  71 N21G26    29.86S WCI  21
BEATRICE       CLOUDY    32  23  70 N14       29.91R WCI  22
FALLS CITY     CLOUDY    37  33  85 NW18G26   29.84R WCI  27

...NORTHERN KANSAS...

CITY           SKY/WX    TMP DP  RH WIND       PRES   REMARKS
GOODLAND       CLEAR     18  10  71 NW16      29.96R WCI   3
HILL CITY      CLEAR     29  16  58 N14       29.97R WCI  18
NORTON         MOSUNNY   28  12  50 NW9       29.96R WCI  20
PHILLIPSBURG   CLOUDY    30  16  55 NW16      29.96R WCI  19
SMITH CENTER   CLOUDY    28  19  69 NW13G20   29.94S WCI  18
BELOIT         CLOUDY    32  21  64 N21       29.92S WCI  20
HAYS           CLOUDY    31  20  63 N23       29.93R WCI  18
RUSSELL        CLOUDY    32  21  64 N21G26    29.91R WCI  20
CONCORDIA      CLOUDY    32  21  64 N13G28    29.92R WCI  22
SALINA         CLOUDY    37  26  64 N24       29.89R WCI  26
TOPEKA         CLOUDY    36  33  89 W3        29.80R



USA.gov is the U.S. government's official web portal to all federal, state and local government web resources and services.